EW8616 Weather Reports


Display with metric or nautical units.
time (UTC)temp
F
wind
direction
speed
MPH
gust
MPH
rain 1hr
in
rain 24hr
in
rain mn
in
humidity
%
barometer
mb
20260503202322 75 281 1.0 3.0 0.00 0.00 0.00 48 1009.1
20260503201837 76 279 1.0 3.0 0.00 0.00 0.00 47 1009.1
20260503201328 76 279 1.0 3.0 0.00 0.00 0.00 46 1009.1
20260503200821 76 241 0.0 3.0 0.00 0.00 0.00 46 1009.2
20260503200352 76 225 0.0 3.0 0.00 0.00 0.00 47 1009.3
20260503195844 76 260 2.0 3.0 0.00 0.00 0.00 47 1009.4
20260503195335 76 256 2.0 3.0 0.00 0.00 0.00 48 1009.4
20260503194827 76 251 0.0 0.0 0.00 0.00 0.00 49 1009.5
20260503194339 76 250 0.0 0.0 0.00 0.00 0.00 51 1009.5
20260503193830 76 49 0.0 0.0 0.00 0.00 0.00 50 1009.6
20260503193323 75 79 0.0 0.0 0.00 0.00 0.00 51 1009.6
20260503192855 75 80 0.0 0.0 0.00 0.00 0.00 52 1009.7
20260503192326 75 270 0.0 0.0 0.00 0.00 0.00 50 1009.8
20260503191819 75 267 0.0 0.0 0.00 0.00 0.00 52 1009.8
20260503191332 75 271 0.0 0.0 0.00 0.00 0.00 51 1009.9
20260503190824 74 13 0.0 0.0 0.00 0.00 0.00 53 1009.9
20260503190337 74 87 0.0 0.0 0.00 0.00 0.00 52 1009.9
20260503185830 74 300 0.0 0.0 0.00 0.00 0.00 52 1010.0
20260503185342 74 300 0.0 0.0 0.00 0.00 0.00 54 1010.0
20260503184833 74 300 0.0 0.0 0.00 0.00 0.00 52 1010.0
20260503184346 74 300 0.0 0.0 0.00 0.00 0.00 51 1010.1
20260503183817 75 300 0.0 0.0 0.00 0.00 0.00 52 1010.1
20260503183330 74 298 0.0 0.0 0.00 0.00 0.00 52 1010.1
20260503182823 74 298 0.0 0.0 0.00 0.00 0.00 54 1010.2
20260503182336 74 304 0.0 0.0 0.00 0.00 0.00 52 1010.2
20260503181830 74 331 0.0 0.0 0.00 0.00 0.00 53 1010.3
20260503181321 73 109 0.0 0.0 0.00 0.00 0.00 57 1010.3
20260503180853 73 109 0.0 0.0 0.00 0.00 0.00 52 1010.3
20260503180326 73 115 0.0 0.0 0.00 0.00 0.00 56 1010.3
20260503175858 72 248 0.0 0.0 0.00 0.00 0.00 57 1010.4
20260503175329 72 101 0.0 0.0 0.00 0.00 0.00 55 1010.4
20260503174826 71 63 0.0 0.0 0.00 0.00 0.00 57 1010.5
20260503174318 71 94 0.0 0.0 0.00 0.00 0.00 55 1010.5
20260503173829 70 28 0.0 0.0 0.00 0.00 0.00 55 1010.5
20260503173341 70 70 0.0 3.0 0.00 0.00 0.00 57 1010.5
20260503172831 70 31 0.0 5.0 0.00 0.00 0.00 57 1010.5
20260503172323 70 90 1.0 5.0 0.00 0.00 0.00 60 1010.6
20260503171831 70 86 0.0 3.0 0.00 0.00 0.00 58 1010.6
20260503171326 70 86 0.0 1.0 0.00 0.00 0.00 58 1010.6
20260503170819 70 88 0.0 4.0 0.00 0.00 0.00 59 1010.6
20260503170331 70 155 2.0 6.0 0.00 0.00 0.00 58 1010.6
20260503150829 65 133 0.0 0.0 0.00 0.00 0.00 74 1010.8
20260503150341 65 133 0.0 0.0 0.00 0.00 0.00 74 1010.9
20260503131333 0 0.0 0.0 0.00 0.00 0.00 1010.6
20260503130824 0 0.0 0.0 0.00 0.00 0.00 1010.6
20260503130358 0 0.0 0.0 0.00 0.00 0.00 1010.6
20260503110826 0 0.0 0.0 0.00 0.00 0.00 1010.8
20260503110319 0 0.0 0.0 0.00 0.00 0.00 1010.8
20260503090322 57 55 0.0 0.0 0.00 0.00 0.00 76 1011.0
20260503081325 58 55 0.0 0.0 0.00 0.00 0.00 71 1011.1
20260503080817 59 55 0.0 0.0 0.00 0.00 0.00 71 1011.1
20260503080330 59 55 0.0 0.0 0.00 0.00 0.00 70 1011.2
20260503072855 61 55 0.0 0.0 0.00 0.00 0.00 63 1011.1
20260503072325 61 55 0.0 0.0 0.00 0.00 0.00 63 1011.1
20260503071837 62 55 0.0 0.0 0.00 0.00 0.00 62 1011.1
20260503071330 62 55 0.0 0.0 0.00 0.00 0.00 62 1011.0
20260503070821 63 55 0.0 0.0 0.00 0.00 0.00 63 1011.1
20260503070334 63 55 0.0 0.0 0.00 0.00 0.00 63 1011.1
20260503060328 65 277 0.0 0.0 0.00 0.00 0.00 52 1010.8
20260503054848 66 277 0.0 0.0 0.00 0.00 0.00 51 1010.8
20260503054318 66 277 0.0 0.0 0.00 0.00 0.00 51 1010.8
20260503053829 66 277 0.0 0.0 0.00 0.00 0.00 51 1010.8
20260503053322 66 351 0.0 1.0 0.00 0.00 0.00 51 1010.8
20260503052855 66 351 0.0 1.0 0.00 0.00 0.00 52 1010.7
20260503052326 66 348 0.0 1.0 0.00 0.00 0.00 52 1010.8
20260503051817 66 347 0.0 5.0 0.00 0.00 0.00 52 1010.8
20260503051330 66 238 0.0 3.0 0.00 0.00 0.00 53 1010.8
20260503050822 66 26 0.0 0.0 0.00 0.00 0.00 53 1010.8
20260503050334 66 28 0.0 0.0 0.00 0.00 0.00 54 1010.8
20260503045825 66 355 0.0 1.0 0.00 0.00 0.00 54 1010.7
20260503045338 66 355 0.0 2.0 0.00 0.00 0.00 55 1010.7
20260503044851 66 330 0.0 2.0 0.00 0.00 0.00 54 1010.6
20260503044322 66 330 0.0 2.0 0.00 0.00 0.00 56 1010.6
20260503043835 65 330 0.0 1.0 0.00 0.00 0.00 57 1010.6
20260503043346 65 322 0.0 0.0 0.00 0.00 0.00 58 1010.6
20260503042818 65 322 0.0 5.0 0.00 0.00 0.00 59 1010.5
20260503042330 65 322 1.0 5.0 0.00 0.00 0.00 59 1010.5
20260503041843 65 313 0.0 0.0 0.00 0.00 0.00 60 1010.4
20260503041334 65 313 0.0 0.0 0.00 0.00 0.00 61 1010.4
20260503040825 65 313 0.0 0.0 0.00 0.00 0.00 62 1010.3
20260503040317 65 313 0.0 0.0 0.00 0.00 0.00 62 1010.3
20260503035851 65 313 0.0 0.0 0.00 0.00 0.00 63 1010.2
20260503035322 64 313 0.0 0.0 0.00 0.00 0.00 64 1010.1
20260503034835 64 313 0.0 0.0 0.00 0.00 0.00 64 1010.0
20260503034328 64 313 0.0 1.0 0.00 0.00 0.00 65 1009.9
20260503033824 64 313 0.0 1.0 0.00 0.00 0.00 65 1009.8
20260503033336 65 313 0.0 0.0 0.00 0.00 0.00 65 1009.8
20260503032829 65 313 0.0 0.0 0.00 0.00 0.00 64 1009.8
20260503032320 65 313 0.0 0.0 0.00 0.00 0.00 65 1009.7
20260503031833 65 313 0.0 0.0 0.00 0.00 0.00 63 1009.7
20260503031326 66 313 0.0 0.0 0.00 0.00 0.00 64 1009.7
20260503030818 66 313 0.0 0.0 0.00 0.00 0.00 63 1009.6
20260503030350 66 313 0.0 0.0 0.00 0.00 0.00 63 1009.5
20260503025822 66 313 0.0 0.0 0.00 0.00 0.00 61 1009.4
20260503025335 67 344 0.0 0.0 0.00 0.00 0.00 61 1009.5
20260503024828 67 344 0.0 0.0 0.00 0.00 0.00 60 1009.5
20260503024341 67 258 0.0 0.0 0.00 0.00 0.00 59 1009.5
20260503023832 68 258 0.0 0.0 0.00 0.00 0.00 61 1009.4
20260503023324 68 258 0.0 0.0 0.00 0.00 0.00 58 1009.4
20260503022817 68 258 0.0 0.0 0.00 0.00 0.00 58 1009.4
20260503022330 68 258 0.0 2.0 0.00 0.00 0.00 58 1009.4
20260503021821 69 258 0.0 2.0 0.00 0.00 0.00 57 1009.4
20260503021355 69 258 1.0 2.0 0.00 0.00 0.00 57 1009.3
20260503020826 69 258 0.0 0.0 0.00 0.00 0.00 57 1009.3
20260503020319 69 258 0.0 1.0 0.00 0.00 0.00 56 1009.3
20260503015832 69 279 0.0 1.0 0.00 0.00 0.00 56 1009.3
20260503015323 70 279 0.0 0.0 0.00 0.00 0.00 55 1009.3
20260503014855 70 279 0.0 0.0 0.00 0.00 0.00 54 1009.3
20260503014326 70 279 0.0 0.0 0.00 0.00 0.00 53 1009.4
20260503013819 70 279 0.0 0.0 0.00 0.00 0.00 54 1009.3
20260503013352 70 340 0.0 2.0 0.00 0.00 0.00 53 1009.3
20260503012823 70 307 0.0 2.0 0.00 0.00 0.00 54 1009.3
20260503012355 70 315 1.0 2.0 0.00 0.00 0.00 54 1009.4
20260503011827 70 315 1.0 3.0 0.00 0.00 0.00 53 1009.4
20260503011339 70 258 0.0 1.0 0.00 0.00 0.00 54 1009.4
20260503010830 70 258 0.0 0.0 0.00 0.00 0.00 54 1009.5
20260503010342 70 258 0.0 0.0 0.00 0.00 0.00 52 1009.4
20260503005833 70 258 0.0 1.0 0.00 0.00 0.00 52 1009.5
20260503005325 71 258 0.0 2.0 0.00 0.00 0.00 53 1009.6
20260503004817 71 258 1.0 4.0 0.00 0.00 0.00 52 1009.6
20260503004350 71 257 1.0 2.0 0.00 0.00 0.00 53 1009.7
20260503003820 71 257 0.0 2.0 0.00 0.00 0.00 53 1009.7
20260503003333 71 257 1.0 2.0 0.00 0.00 0.00 53 1009.7
20260503002825 71 257 0.0 3.0 0.00 0.00 0.00 54 1009.7
20260503002321 71 257 1.0 3.0 0.00 0.00 0.00 53 1009.7
20260503001833 71 250 0.0 3.0 0.00 0.00 0.00 53 1009.7
20260503001345 71 264 0.0 0.0 0.00 0.00 0.00 54 1009.7
20260503000817 71 264 0.0 0.0 0.00 0.00 0.00 52 1009.7
20260503000330 71 264 0.0 0.0 0.00 0.00 0.00 53 1009.8
20260502235822 71 264 0.0 0.0 0.00 0.00 0.00 51 1009.7
20260502235334 71 264 0.0 3.0 0.00 0.00 0.00 52 1009.8
20260502234826 71 264 2.0 4.0 0.00 0.00 0.00 50 1009.8
20260502234319 71 261 1.0 4.0 0.00 0.00 0.00 50 1009.9
20260502233831 71 270 0.0 3.0 0.00 0.00 0.00 51 1010.0
20260502233324 71 269 2.0 3.0 0.00 0.00 0.00 53 1010.1
20260502232817 71 270 2.0 3.0 0.00 0.00 0.00 49 1010.2
20260502232330 71 261 1.0 3.0 0.00 0.00 0.00 54 1010.3
20260502231823 71 265 1.0 3.0 0.00 0.00 0.00 51 1010.3
20260502231355 71 265 0.0 3.0 0.00 0.00 0.00 52 1010.4
20260502230826 71 265 0.0 3.0 0.00 0.00 0.00 52 1010.4
20260502230319 71 265 0.0 0.0 0.00 0.00 0.00 55 1010.5
20260502225832 71 257 0.0 0.0 0.00 0.00 0.00 57 1010.6
20260502225325 71 257 0.0 0.0 0.00 0.00 0.00 57 1010.6
20260502224320 70 221 0.0 0.0 0.00 0.00 0.00 58 1010.7
20260502223832 70 221 0.0 0.0 0.00 0.00 0.00 57 1010.8
20260502223325 70 297 0.0 0.0 0.00 0.00 0.00 60 1010.9
20260502222838 70 297 0.0 0.0 0.00 0.00 0.00 59 1011.0
20260502222350 70 302 0.0 0.0 0.00 0.00 0.00 58 1011.1
20260502221841 70 302 0.0 0.0 0.00 0.00 0.00 58 1011.1
20260502221353 70 304 0.0 0.0 0.00 0.00 0.00 58 1011.2
20260502220824 70 261 0.0 0.0 0.00 0.00 0.00 58 1011.2
20260502220317 70 261 0.0 0.0 0.00 0.00 0.00 58 1011.2
20260502215829 71 262 0.0 3.0 0.00 0.00 0.00 57 1011.3
20260502215320 70 261 0.0 3.0 0.00 0.00 0.00 59 1011.3
20260502214833 70 273 0.0 3.0 0.00 0.00 0.00 58 1011.4
20260502214347 70 277 0.0 0.0 0.00 0.00 0.00 59 1011.4
20260502213817 70 268 0.0 0.0 0.00 0.00 0.00 59 1011.4
20260502213330 70 268 0.0 0.0 0.00 0.00 0.00 57 1011.5
20260502212822 71 268 0.0 1.0 0.00 0.00 0.00 57 1011.5
20260502212319 70 188 0.0 3.0 0.00 0.00 0.00 59 1011.6
20260502211832 70 223 0.0 3.0 0.00 0.00 0.00 60 1011.7
20260502211323 70 278 0.0 2.0 0.00 0.00 0.00 61 1011.7
20260502210835 70 257 1.0 3.0 0.00 0.00 0.00 60 1011.7
20260502210347 70 257 1.0 3.0 0.00 0.00 0.00 62 1011.8
20260502205819 69 256 0.0 3.0 0.00 0.00 0.00 62 1011.9
20260502205331 69 253 2.0 4.0 0.00 0.00 0.00 62 1011.8
20260502204843 69 227 1.0 4.0 0.00 0.00 0.00 61 1011.9
20260502204335 69 52 1.0 7.0 0.00 0.00 0.00 62 1011.9
20260502203847 69 281 0.0 0.0 0.00 0.00 0.00 62 1012.0
20260502203318 69 281 0.0 0.0 0.00 0.00 0.00 61 1012.0
20260502202830 69 273 0.0 0.0 0.00 0.00 0.00 61 1012.0